RH
29 31 31 28 30 32 33 36 41 56 62 43 36 36 39 40 46 56 62 59 71 72 74 75 75 74 72 70 69 68 64 66 67 71 71 74 83 75
41 36 33 32 36 37 38 41 43 47 65 45 42 41 44 48 56 64 62 67 64 76 79 79 75 74 73 71 69 69 74 67 64 75 79 76 78 75
63 58 39 35 36 39 42 44 46 50 65 55 52 48 53 58 62 62 60 59 59 71 77 79 79 78 74 72 71 69 68 73 75 74 79 73 83 76
65 57 40 37 41 44 46 46 48 50 56 65 57 58 62 63 65 68 66 62 70 72 83 85 78 74 74 74 72 73 76 76 75 79 80 76 76 70
52 43 45 46 49 51 53 51 50 51 54 63 71 70 70 66 70 74 73 76 76 76 75 75 76 77 80 79 76 72 74 73 73 73 72 70 69 68
58 59 76 87 84 60 51 49 53 57 60 64 71 73 72 70 78 84 82 78 81 77 71 79 82 82 80 78 80 82 84 83 81 79 77 76 73 74
99 97 65 54 51 63 66 61 59 61 63 64 76 78 80 86 86 80 88 86 88 82 72 76 80 82 83 82 80 80 84 88 86 82 79 78 84 83
69 50 46 45 47 51 64 69 66 64 65 74 73 82 91 81 83 88 88 96 89 78 80 86 84 85 79 77 78 86 86 84 82 81 78 79 84 86
43 43 45 52 55 54 54 66 68 70 70 71 79 80 82 83 82 93 96 98 96 91 88 89 85 86 75 74 76 82 84 85 84 81 82 81 82 82
44 49 57 66 64 72 72 70 68 70 76 81 82 79 76 76 88 98 97 92 90 88 85 88 78 81 78 73 82 84 86 85 85 83 80 78 78 80
56 63 71 73 70 72 70 70 79 80 74 73 74 78 81 79 76 76 86 94 89 84 83 86 86 82 84 84 71 58 82 81 78 77 78 79 78 79
64 70 69 74 71 74 74 82 76 73 68 77 80 75 66 61 74 81 86 97 96 91 67 79 83 92 84 67 67 64 70 69 83 86 87 86 85 82
75 69 66 78 81 82 76 76 74 72 76 77 71 65 70 74 82 86 94 100 99 94 87 94 94 96 95 92 85 81 79 80 76 80 86 88 90 90
75 73 81 90 83 80 77 74 75 78 76 71 82 88 92 90 87 90 89 92 98 100 99 100 97 98 95 92 87 78 79 84 88 91 93 87 94 95
77 86 97 85 80 72 73 78 82 72 78 89 97 97 95 92 89 87 88 93 96 93 90 89 100 99 98 94 92 90 89 84 86 92 92 91 86 91
92 86 79 74 70 72 62 64 73 81 92 94 95 97 95 94 98 96 100 100 100 94 82 86 92 96 98 98 98 93 88 93 86 92 95 97 99 100
84 79 63 65 69 70 74 79 82 88 94 95 100 100 100 100 100 95 97 100 100 95 94 88 88 94 99 99 96 92 92 93 91 93 97 96 94 96
81 71 76 78 83 86 89 89 89 93 94 100 100 100 100 100 100 100 100 100 99 96 97 95 96 98 89 82 92 97 96 96 94 95 97 97 94 91
75 76 82 84 86 90 93 96 96 94 96 96 97 98 100 98 99 100 99 99 96 94 94 94 98 96 94 89 69 72 94 97 97 96 93 91 90 88
78 85 86 88 93 96 97 99 98 96 97 98 99 100 98 98 100 98 97 97 96 94 93 89 92 97 96 94 94 86 89 96 98 96 94 92 94 93
86 90 93 95 96 98 99 99 100 98 100 99 96 100 99 99 98 99 99 96 94 94 93 89 87 93 97 99 93 78 75 80 91 99 98 97 92 88
91 95 95 95 98 99 98 98 97 96 95 96 100 100 98 100 100 99 99 98 96 96 96 96 94 94 98 97 92 89 86 83 84 87 91 98 98 96
92 96 95 97 98 98 97 97 98 96 95 98 100 100 98 100 100 100 100 100 100 97 95 94 92 92 86 93 96 94 93 90 85 88 87 80 83 83
Wind_Speed
14 10 9 7 6 7 7 7 5 2 3 5 5 7 10 24 24 22 21 25 23 24 25 25 25 25 25 27 29 29 29 30 29 29 31 32 32 32
10 11 8 9 8 7 7 8 10 10 3 9 8 18 23 24 23 22 25 25 26 23 23 23 25 27 26 28 28 28 28 30 32 31 31 33 33 33
6 5 10 6 7 8 9 10 11 13 8 10 17 22 23 23 25 26 28 30 28 26 25 25 26 26 26 28 28 29 30 31 31 32 32 32 32 34
11 9 11 6 6 9 10 12 13 15 16 15 20 23 23 24 24 28 29 30 29 29 27 26 26 26 27 28 29 29 29 30 31 32 32 33 33 35
5 8 5 5 7 10 13 15 16 16 18 20 17 21 23 24 26 30 30 29 27 29 27 26 25 26 26 25 26 28 30 31 32 32 32 32 34 35
6 3 7 10 11 12 14 14 14 16 17 19 21 23 25 25 25 26 24 25 27 30 33 27 24 24 25 29 30 31 31 31 31 31 32 34 34 34
7 8 6 10 8 9 14 15 15 15 16 21 21 21 22 19 19 25 25 26 27 30 29 27 23 28 33 32 31 32 29 28 29 30 31 33 34 35
5 6 7 8 9 10 11 12 14 18 21 18 22 18 18 21 23 24 25 22 9 19 18 30 27 30 34 33 32 29 30 32 33 33 34 34 35 35
4 5 6 8 10 13 13 13 14 15 18 21 21 22 24 26 31 28 25 23 22 26 29 32 25 31 34 34 31 31 33 33 33 32 32 32 32 32
5 5 6 9 12 14 15 16 17 18 19 20 24 28 30 29 25 25 24 25 26 27 25 19 23 29 31 34 34 33 31 30 29 29 29 30 31 32
5 6 8 12 15 14 17 19 18 19 20 24 23 22 23 25 27 29 24 20 20 23 26 22 18 23 27 35 28 24 25 27 29 31 33 34 34 35
7 9 13 13 14 13 17 16 18 24 26 21 20 28 30 28 23 20 23 20 19 14 13 8 22 19 9 22 21 24 36 34 32 33 32 33 33 33
11 15 15 12 14 15 17 20 21 21 21 23 27 27 27 27 26 25 23 22 23 24 31 25 19 22 18 21 19 26 33 37 37 38 34 32 30 29
12 14 14 14 15 16 17 17 18 18 21 22 22 23 24 28 30 29 28 27 28 31 37 30 21 24 25 25 20 27 30 33 34 38 35 35 29 28
14 14 12 12 15 17 17 16 15 16 18 20 19 22 25 29 30 30 31 31 32 33 32 30 30 31 28 27 26 32 32 27 33 34 32 31 34 33
12 8 12 15 14 13 15 14 14 16 17 19 23 26 27 28 28 27 29 28 26 32 32 29 27 28 31 30 29 33 34 20 30 31 31 31 30 30
11 16 18 18 18 17 16 15 17 19 19 21 21 21 25 25 26 28 28 27 21 26 31 34 30 28 31 32 29 35 32 32 33 32 28 31 32 31
11 13 16 16 16 17 17 20 21 20 22 22 22 23 24 25 26 27 24 22 23 25 27 30 30 28 26 24 28 34 34 31 35 33 31 28 29 27
10 13 14 15 17 17 19 21 23 24 23 23 23 27 26 26 25 26 24 23 23 25 28 29 26 20 11 13 29 24 28 31 32 31 31 29 30 34
11 13 15 15 16 19 21 22 24 25 25 23 26 26 27 26 25 24 24 24 23 26 27 27 24 22 13 16 19 41 28 26 24 27 28 30 33 37
13 14 15 16 18 19 21 22 23 25 22 25 27 28 28 25 25 25 25 28 28 25 22 25 29 31 32 31 17 25 35 29 27 29 31 24 21 26
14 16 17 18 19 20 21 22 25 27 27 27 28 29 29 26 25 26 25 25 26 26 28 31 31 29 25 20 13 25 29 36 36 29 28 29 23 7
15 16 18 20 21 21 22 24 26 27 27 28 29 32 31 28 29 28 29 28 27 25 27 28 28 26 26 23 24 22 29 30 31 31 33 30 29 30
Wind_Direction
173 186 181 184 230 232 218 224 183 238 276 252 244 248 251 307 316 317 313 313 308 302 299 296 294 293 292 290 289 287 285 283 281 281 279 278 279 277
177 165 200 173 208 231 241 239 238 235 237 230 259 287 301 307 313 313 315 314 310 306 301 296 293 292 291 290 288 285 285 284 281 282 279 278 277 276
168 194 228 187 217 236 249 255 252 242 239 271 276 295 299 307 310 314 317 318 315 310 300 296 293 292 290 289 287 285 284 283 282 279 279 277 280 277
171 195 236 220 237 252 257 261 265 268 261 266 287 294 298 306 306 311 314 316 312 310 300 298 295 293 291 288 286 285 283 282 281 280 281 280 279 278
186 223 245 248 257 271 269 264 270 274 277 279 282 293 298 305 306 310 312 309 308 307 301 297 294 291 290 289 288 287 286 284 281 279 277 276 276 275
188 239 282 289 278 270 270 275 282 281 284 286 288 291 298 306 305 305 302 306 302 308 307 296 293 291 290 291 289 286 283 281 278 277 275 274 273 272
271 294 308 268 268 273 280 288 285 281 288 288 286 292 293 299 296 303 299 303 300 303 302 298 302 297 295 296 291 289 286 285 284 281 277 275 274 273
287 253 269 286 289 284 287 292 289 296 298 293 296 285 285 294 301 299 297 299 304 303 293 296 299 292 292 293 294 289 288 286 284 282 278 276 275 274
265 294 317 313 309 303 302 300 294 293 290 294 297 294 295 303 301 293 288 280 278 287 297 292 296 286 294 296 293 289 288 287 286 284 282 280 277 274
322 333 326 313 317 317 311 306 303 302 300 300 298 299 298 302 299 295 295 294 290 291 291 285 296 285 292 296 293 288 287 286 286 285 283 280 277 276
357 335 321 319 316 311 310 304 312 307 307 304 298 295 296 297 298 300 296 297 296 294 294 285 284 291 296 290 296 293 285 286 286 283 281 280 279 277
329 319 312 312 314 311 310 319 320 318 316 313 304 304 306 307 306 296 294 285 287 298 298 270 295 308 300 291 287 283 289 292 288 285 282 281 279 278
316 318 324 321 316 314 315 316 314 311 311 310 309 309 313 316 316 315 305 287 278 270 278 290 288 288 274 288 287 286 287 289 291 290 286 283 279 274
319 323 324 319 319 317 313 311 311 311 309 313 313 309 309 313 317 315 312 304 292 276 290 285 276 278 278 282 286 291 288 286 282 281 281 287 281 274
323 316 316 322 321 318 322 319 317 317 321 316 307 305 308 314 317 319 318 313 308 305 304 301 281 277 273 273 277 284 290 289 283 279 278 276 278 278
328 335 328 325 326 325 322 327 328 326 316 307 308 309 314 316 309 313 307 308 305 303 312 307 294 284 270 268 272 277 280 276 283 280 276 275 272 266
323 325 332 336 335 335 334 332 331 330 324 321 312 305 306 305 304 316 310 304 290 297 302 308 309 297 280 271 273 274 275 278 278 277 278 277 275 268
329 334 330 330 327 328 326 326 329 329 328 320 312 309 302 305 306 309 305 298 293 295 294 298 302 304 299 287 260 264 277 273 279 281 276 268 273 273
338 332 327 326 326 327 325 325 322 326 325 323 319 317 312 307 307 304 303 299 297 296 293 296 294 290 296 295 298 285 272 278 283 282 279 275 276 278
338 328 324 325 325 324 325 324 323 325 325 324 321 314 312 309 304 304 304 302 300 301 302 304 300 294 286 294 300 300 298 280 282 284 283 281 273 276
333 329 329 327 326 325 324 323 322 322 319 313 319 322 318 310 303 301 300 303 305 300 297 300 303 311 302 299 292 296 304 303 290 283 287 285 283 289
330 327 331 331 329 327 326 326 325 325 324 322 321 321 319 312 300 299 299 299 300 296 292 297 303 312 307 299 295 298 302 310 309 303 294 282 278 272
328 328 331 332 331 330 329 327 324 322 322 321 320 321 315 306 305 299 295 294 294 297 305 306 310 311 310 305 300 300 302 306 311 314 314 314 305 298